Regional Weather Roundup
Issued by NWS Grand Forks, ND

Home | Current Version | Previous Version | Graphics & Text | Print | Product List | Glossary On
Versions: 1 2 3 4 5 6 7 8 9 10 11 12 13 14 15 16 17 18 19 20 21 22 23 24 25 26 27 28 29 30 31 32 33 34 35 36 37 38 39 40 41 42 43 44 45 46 47 48 49 50
000
ASUS43 KFGF 261710
RWRFGF
PRAIRIE TO PINES  WEATHER ROUNDUP
NATIONAL WEATHER SERVICE EASTERN NORTH DAKOTA/GRAND FORKS ND
1200 PM CDT TUE MAY 26 2015

 **SATELLITE DATA USED TO AUGMENT SKY COVER AT AUTOMATED STATIONS**
 *****  WEATHER ACROSS EASTERN NORTH DAKOTA  *****

CITY           SKY/WX    TMP DP  RH WIND       PRES   REMARKS
GRAND FORKS    MOSUNNY   76  53  44 SW7       29.78F
GRAND FRKS AFB SUNNY     78  51  37 CALM      29.79S
GRAND FRKS NWS   N/A     73 N/A N/A SW2         N/A
DEVILS LAKE    SUNNY     79  46  31 NW12      29.81F
FARGO          MOSUNNY   71  53  52 S8        29.82F
WAHPETON ARPT  PTSUNNY   66  50  55 CALM      29.84F
$$

 ***** WEATHER ACROSS CENTRAL AND WESTERN NORTH DAKOTA  *****

CITY           SKY/WX    TMP DP  RH WIND       PRES   REMARKS
BISMARCK       SUNNY     75  49  39 NW14      29.91S
MINOT          SUNNY     78  45  30 NW14G21   29.87F
JAMESTOWN      SUNNY     75  54  47 N10       29.83F
MINOT AFB      SUNNY     78  47  33 NW16G23   29.86F
GARRISON         N/A     77  47  34 NW16G22   29.89F
WILLISTON      SUNNY     74  47  38 SW7       29.92F
DICKINSON      SUNNY     71  47  42 W7        29.93
HETTINGER      SUNNY     67  49  52 W5        29.97S
$$

 *****  OTHER AIRPORT OBSERVATIONS IN OUR AREA  *****

CITY           SKY/WX    TMP DP  RH WIND       PRES   REMARKS
WALHALLA         N/A     81  45  28 NE7       29.78F
GRAFTON AIRPOR FAIR      75  52  43 W6        29.79S
VALLEY CITY AR FAIR      72  54  53 NW9       29.83F
CANDO          FAIR      81  39  22 N13       29.83S
CAVALIER APRT  FAIR      77  48  36 NW7       29.78F
GWINNER        NOT AVBL
ROLLA            N/A     79  37  22 NW16      29.85S
 ***** THE ABOVE OBSERVATIONS ARE NON NWS ARE NOT QUALITY
       CONTROLLED AND MAY MIS-REPORT RAIN FOR SNOW...
$$

  *****  WEATHER ACROSS NORTHERN MINNESOTA  *****

CITY           SKY/WX    TMP DP  RH WIND       PRES   REMARKS
FLAG ISLAND    SUNNY     61  52  72 SE13      29.78F
WARROAD        SUNNY     73  57  56 SW8       29.79F
ROSEAU         SUNNY     73  54  49 SW7       29.79F
HALLOCK        SUNNY     73  54  49 CALM      29.78S
THF RVR FALLS  SUNNY     72  52  49 S13       29.81F
BAUDETTE       MOSUNNY   72  51  47 SW9       29.81F
WASKISH        MOSUNNY   68  57  68 CALM      29.83F
CROOKSTON      SUNNY     73  54  49 S16       29.81S
STEPHEN NDAWN    N/A     75  55  50 SW3         N/A
GREENBUSH NDAW   N/A     73  54  49 SW3         N/A
$$
  *****  WEATHER ACROSS CENTRAL AND WEST MINNESOTA  *****

CITY           SKY/WX    TMP DP  RH WIND       PRES   REMARKS
FOSSTON        MOSUNNY   68  52  56 S8        29.84F
BEMIDJI        PTSUNNY   67  55  64 SE5       29.85F
PARK RAPIDS    PTSUNNY   69  50  50 E6        29.84F
ELBOW LAKE     FAIR      68  53  58 NE7       29.84S
WADENA         PTSUNNY   66  54  63 NE7       29.84F
DETROIT LAKES  PTSUNNY   68  52  56 S7        29.86S
MOORHEAD       MOSUNNY   68  54  60 S9        29.84S
FERGUS FALLS   PTSUNNY   70  48  46 E5        29.85S
MORRIS MN      PTSUNNY   68  55  64 NE7       29.83S
STAPLES        PTSUNNY   66  50  55 NE7       29.84S
$$
  *****  WEATHER ELSEWHERE ACROSS MINNESOTA  *****

CITY           SKY/WX    TMP DP  RH WIND       PRES   REMARKS
DULUTH         PTSUNNY   60  53  77 E10       29.86F
INTRNTL FALLS  MOSUNNY   69  51  52 S5        29.84F
ELY            MOSUNNY   66  48  52 SE5       29.86F
CLOQUET        CLOUDY    59  52  77 E10       29.86F
WHEATON        PTSUNNY   64  54  68 NE6       29.86S
BRAINERD       CLOUDY    64  54  69 NE9       29.85R
HIBBING        PTSUNNY   68  51  54 E8        29.85F
ALEXANDRIA     PTSUNNY   66  52  60 E12       29.84F
SAINT CLOUD    CLOUDY    58  54  86 NE8       29.82S
MINNEAPOLIS    LGT RAIN  57  55  93 N8G20     29.79F
$$

  *****  WEATHER ACROSS SOUTH DAKOTA  *****

CITY           SKY/WX    TMP DP  RH WIND       PRES   REMARKS
SIOUX FALLS    CLOUDY    58  52  80 N10       29.84R
BROOKINGS      CLOUDY    63  52  67 N12       29.85S
WATERTOWN      CLOUDY    64  51  62 N10       29.86R
HURON          MOSUNNY   69  54  58 N10       29.86S
SISSETON         N/A     69  52  54 NE5       29.84S
ABERDEEN       MOSUNNY   73  55  53 N12       29.86S
MITCHELL       PTSUNNY   69  50  50 N13       29.88R
PIERRE         SUNNY     69  51  52 NW18      29.91S
MOBRIDGE       SUNNY     71  53  52 NW14      29.89F
RAPID CITY     MOSUNNY   59  52  77 SW9       29.99S
$$

  *****  SOME WEATHER IN NEARBY STATES *****

CITY           SKY/WX    TMP DP  RH WIND       PRES   REMARKS
GLASGOW MT     SUNNY     70  45  40 S8        29.91S
GREAT FALLS MT LGT RAIN  54  49  83 W5        29.97R
CHEYENNE WY    CLOUDY    58  38  47 NW6       30.06F
SCOTTSBLUFF NE CLOUDY    62  52  69 MISG      30.02S
OMAHA NE       CLOUDY    67  60  78 W7        29.80R
DES MOINES IA  LGT RAIN  64  60  87 SW8       29.80R FOG
DAVENPORT IA   CLOUDY    69  63  81 S15       29.75S
CHICAGO IL     CLOUDY    72  65  78 S16G28    29.81F
EAU CLAIRE WI  LGT RAIN  64  59  83 S5        29.79S
LA CROSSE WI   LGT RAIN  65  61  87 NE8       29.72F
$$

  *****  SOME NATIONAL WEATHER *****

CITY           SKY/WX    TMP DP  RH WIND       PRES   REMARKS
LA GUARDIA NY  PTSUNNY   84  60  44 S9        30.19S
RALEIGH NC     MOSUNNY   83  67  58 VRB7      30.28F
ATLANTA GA     PTSUNNY   80  69  69 S13       30.22F
NEW ORLEANS LA CLOUDY    79  66  64 SE7       30.09S
OKLAHOMA CITY  PTSUNNY   73  60  63 VRB7      29.97R
ALBUQUERQUE NM PTSUNNY   63  45  51 SE5       30.15S
SALT LAKE CITY LGT RAIN  60  49  66 SW10      30.04R
LOS ANGELES CA CLOUDY    60  55  83 W8        30.01R
BOISE ID       SUNNY     66  49  54 CALM      29.96S
SEATTLE WA     PTSUNNY   58  49  72 W3        30.06S
$$

*** WEATHER ACROSS MANITOBA...SASKATCHEWAN AND ONTARIO ***
                ***ONTARIO***

CITY           SKY/WX    TMP DP  RH WIND       PRES   REMARKS
GERALDTON      PTSUNNY   68  54  60 VRB2      29.85S
THUNDER BAY    CLOUDY    68  52  56 SE10      29.85S
SIOUX LOOKOUT  PTSUNNY   70  52  52 SW8       29.81F
TORONTO        NOT AVBL
BIG TROUT LK   SUNNY     52  34  50 NE9       29.79S
PICKLE LAKE    MOSUNNY   73  50  43 SW9       29.75F
DRYDEN         SUNNY     70  50  49 SW9G20    29.81F
KENORA         MOSUNNY   66  50  55 S9        29.81S
$$
                *** MANITOBA***

CITY           SKY/WX    TMP DP  RH WIND       PRES   REMARKS
BRANDON        MOSUNNY   82  41  23 W16G23    29.80F
DAUPHIN        SUNNY     81  41  24 W14G24    29.77F
ISLAND LAKE    MOSUNNY   55  34  44 N10       29.80R
PILOT MOUND      N/A     79  39  24 W10         N/A
THE PAS        PTSUNNY   48  36  61 N12       29.86F
THOMPSON       CLOUDY    34  27  75 N13       29.96R WCI  25
WINNIPEG       MOSUNNY   79  50  36 SW6       29.77F
LYNN LAKE      PTSUNNY   41  21  45 E9        29.97S
CHURCHILL      CLOUDY    28  21  74 NW8       30.06F WCI  20
GILLAM         PTSUNNY   30  23  74 NE10      29.99F WCI  21
$$
                ***SASKATCHEWAN***

CITY           SKY/WX    TMP DP  RH WIND       PRES   REMARKS
ESTEVAN        MOSUNNY   77  45  31 W14       29.89F
KINDERSLEY     NOT AVBL
LLOYDMINSTER   MOSUNNY   72  45  37 N10       29.92R
PRINCE ALBERT  NOT AVBL
REGINA         MOSUNNY   79  45  29 N7        29.87S
YORKTON        SUNNY     77  41  27 NW15      29.82S
N. BATTLEFORD  SUNNY     75  43  31 N12       29.89S
LA RONGE       CLOUDY    48  39  71 N9        29.95R
SASKATOON      PTSUNNY   77  41  27 N7        29.86F
SWIFT CURRENT  SUNNY     75  37  25 NE7       29.90S
$$
NOTE: THESE ARE AUTOMATED STATIONS WITH LIMITED QUALITY CONTROL
      "FAIR" INDICATES FEW OR NO CLOUDS BELOW 12,000 FEET WITH NO
      SIGNIFICANT WEATHER AND/OR OBSTRUCTIONS TO VISIBILITY.
      SKY/WX - SKY CONDITION AND SIGNIFICANT WEATHER.
      TMP - AIR TEMPERATURE.    DP   - DEWPOINT TEMPERATURE.
      RH  - RELATIVE HUMIDITY.  PRES - PRESSURE.
      HX  - HEAT INDEX.         WCI  - WIND CHILL INDEX.
$



USA.gov is the U.S. government's official web portal to all federal, state and local government web resources and services.